Tracking 25620 objects as of 18-May-2022
HD Live streaming from Space Station
objects crossing your sky now

COSMOS 2251 DEB

Track COSMOS 2251 DEB now!
10-day predictions


NORAD ID: 33907
Int'l Code: 1993-036DL
Perigee: 748.2 km
Apogee: 970.0 km
Inclination: 74.1 °
Period: 102.0 minutes
Semi major axis: 7230 km
RCS: 0.033 m2 (small)
Launch date: June 16, 1993
Source: Commonwealth of Independent States (former USSR) (CIS)
Launch site: PLESETSK MISSILE AND SPACE COMPLEX (PKMTR)

Note: This is SATELLITE DEBRIS
aabbcc
Your satellite tracking list
Your tracking list is empty




NASA's NSSDC Master Catalog

Two Line Element Set (TLE):
1 33907U 93036DL  22137.45340891  .00003787  00000-0  18574-2 0  9994
2 33907  74.0747 203.0700 0153380 223.1510 147.8188 14.12159519680547
Source of the keplerian elements: AFSPC